COSMOS 249 DEB

Satellite information

Favourite Embed

Satellite Type and Status

DEBRISIN ORBIT

Key statistics

Satellite COSMOS 249 DEB at a glance.

Uptime

20715

Days in orbit

Revolutions

≈ 13.1

Per day

Orbit

LEO

Low Earth Orbit

Inclination

62.2

Latest

Satellite identification and parameters

Extended collection of information and parameters for COSMOS 249 DEB.

Object identification

Identified? True

Debris? True

Object name: COSMOS 249 DEB

International designator: 1968-091DN

Object number (NORAD): 20011

Object ID (CCSDS): 20011

Country: COMMONWEALTH OF INDEPENDENT STATES (CIS)

Current information (Y/N): Y

RCS size: SMALL

Orbital parameters

Period: 109.958 minutes

Inclination: 62.2244 deg

SMA: 7602.899 km

Apoapsis: 1706.894 km

Periapsis: 742.634 km

RAAN: 225.924 deg

Eccentricy: 0.063414

Argument of periapsis: 224.46 deg

Mean anomaly: 130.3815 deg

Mean motion: 13.09585685 rev/day

Mean motion (dot): 0.00001264 rev/day2

B* drag term: 0.0014393 1/REarth

Two-line elements (TLE)

Creation date: July 6, 2025, 6:05 p.m.

Reference frame: TEME

Reference center: EARTH

Epoch: July 6, 2025, 11:58 a.m. UTC

TLE line 0: 0 COSMOS 249 DEB

TLE line 1: 1 20011U 68091DN 25187.49917402 .00001264 00000-0 14393-2 0 9992

TLE line 2: 2 20011 62.2244 225.9240 0634140 224.4600 130.3815 13.09585685597604

Live tracking on map

Real-time ground track for satellite COSMOS 249 DEB.

In-orbit conjunctions

A list of the most updated potential collisions computed for object COSMOS 249 DEB.

Target Orbit TCA Probability of collision Miss distance Type
METEOR 2-17 DEB LEO 2024-09-27 04:49:33 0.0001898611 727.0 (m) DEBRIS

Associated space launch

The I2P satellites were the first soviet coorbital ASAT system.

COSMOS 249 DEB was lifted into orbit during the mission ‘Tsiklon-2A | I2P 1’, on board a Tsiklon-2A space rocket.

The launch took place on Oct. 20, 1968, 4:02 a.m. from 90/20.

For more information about the launch, click the button.

Launch to space Tsiklon-2A | I2P 1
Tsiklon-2A | I2P 1

Agency: N/A

Status: Launch Successful

Launch date: Oct. 20, 1968, 4:02 a.m. UTC

Rocket: Tsiklon-2A

Launch pad: 90/20

Location: Baikonur Cosmodrome, Republic of Kazakhstan

...

Latest news about this satellite

There are no fresh news available about this satellite. Check back as we update our databases every day.


Newsletter sign-up

Weekly statistics, charts and insights to help you stay on top of the space industry.